Orbital Elements at Epoch 2459200.5 (2020-Dec-17.0) TDB
Reference: JPL 19 (heliocentric ecliptic J2000)
Element | Value | Uncertainty (1-sigma) | Units |
e | .09655981909595916 | 3.3021e-08 | |
a | 2.367367046973502 | 1.0834e-08 | au |
q | 2.138774513184006 | 8.0974e-08 | au |
i | 6.993470464083361 | 3.9941e-06 | deg |
node | 72.80726862853994 | 3.1817e-05 | deg |
peri | 49.3316050618182 | 3.9831e-05 | deg |
M | 61.21231522195372 | 2.3084e-05 | deg |
tp | 2458974.278889870512 (2020-May-04.77888987) | 8.5e-05 | TDB |
period | 1330.444688316696 3.64 | 9.1329e-06 2.5e-08 | d yr |
n | .2705862206533958 | 1.8575e-09 | deg/d |
Q | 2.595959580762999 | 1.188e-08 | au |
|
| | Orbit Determination Parameters
Additional Information
|